Tracking 18852 objects as of 24-Nov-2017
HD Live streaming from Space Station
objects crossing your sky now

FENGYUN 1C DEB

Track FENGYUN 1C DEB now!
10-day predictions


NORAD ID: 30730
Int'l Code: 1999-025ASQ
Perigee: 782.8 km
Apogee: 913.0 km
Inclination: 98.9 °
Period: 101.7 minutes
Semi major axis: 7218 km
RCS: 0.031 m2 (small)
Launch date: May 10, 1999
Source: People's Republic of China (PRC)
Launch site: Taiyaun Space Center, China (TSC)

Note: This is SATELLITE DEBRIS
aabbcc
Your satellite tracking list
Your tracking list is empty




NASA's NSSDC Master Catalog

Two Line Element Set (TLE):
1 30730U 99025ASQ 17327.80064081  .00000564  00000-0  29993-3 0  9995
2 30730  98.9030   3.1221 0090140 204.6082 209.3035 14.15452089553328
Source of the keplerian elements: AFSPC